FW4141 Weather Reports


time (UTC)temp
C
wind
direction
speed
KPH
gust
KPH
rain 1hr
cm
rain 24hr
cm
rain mn
cm
humidity
%
barometer
mb
20260503055023 21 0.0 0.0 0.00 0.00 0.00 38 1008.9
20260503054021 20 0.0 0.0 0.00 0.00 0.00 41 1008.9
20260503053117 18 0.0 0.0 0.00 0.00 0.00 42 1009.1
20260503052125 18 0.0 0.0 0.00 0.00 0.00 43 1009.1
20260503051155 17 0.0 0.0 0.00 0.00 0.00 45 1009.1
20260503050125 16 0.0 0.0 0.00 0.00 0.00 51 1009.1
20260503045120 15 0.0 0.0 0.00 0.00 0.00 57 1009.3
20260503044108 12 0.0 0.0 0.00 0.00 0.00 61 1009.3
20260503043116 11 0.0 0.0 0.00 0.00 0.00 63 1009.2
20260503042053 10 0.0 0.0 0.00 0.00 0.00 63 1009.2
20260503041048 10 0.0 0.0 0.00 0.00 0.00 62 1009.2
20260503040043 10 0.0 0.0 0.00 0.00 0.00 62 1009.2
20260503035056 10 0.0 0.0 0.00 0.00 0.00 62 1009.1
20260503034059 8 0.0 0.0 0.00 0.00 0.00 62 1009.1
20260503033032 8 0.0 0.0 0.00 0.00 0.00 62 1009.2
20260503032029 9 0.0 0.0 0.00 0.00 0.00 61 1009.1
20260503031048 10 0.0 0.0 0.00 0.00 0.00 59 1009.2
20260503030023 10 0.0 0.0 0.00 0.00 0.00 57 1009.3
20260503025019 11 0.0 0.0 0.00 0.00 0.00 55 1009.3
20260503024114 12 0.0 0.0 0.00 0.00 0.00 54 1009.3
20260503023111 12 0.0 0.0 0.00 0.00 0.00 54 1009.2
20260503022108 12 0.0 0.0 0.00 0.00 0.00 54 1009.4
20260503021106 12 0.0 0.0 0.00 0.00 0.00 54 1009.5
20260503015117 12 0.0 0.0 0.00 0.00 0.00 53 1009.7
20260503014102 11 0.0 0.0 0.00 0.00 0.00 56 1009.7
20260503013050 10 0.0 0.0 0.00 0.00 0.00 58 1009.6
20260503012046 11 0.0 0.0 0.00 0.00 0.00 56 1009.6
20260503011044 11 0.0 0.0 0.00 0.00 0.00 55 1009.8
20260503010039 12 0.0 0.0 0.00 0.00 0.00 55 1009.9
20260503005036 12 0.0 0.0 0.00 0.00 0.00 51 1010.0
20260503004033 13 0.0 0.0 0.00 0.00 0.00 51 1009.9
20260503003029 14 0.0 0.0 0.00 0.00 0.00 51 1010.1
20260503002047 14 0.0 0.0 0.00 0.00 0.00 48 1010.1
20260503001019 15 0.0 0.0 0.00 0.00 0.00 46 1010.2
20260503000016 15 0.0 0.0 0.00 0.00 0.00 45 1010.3
20260502235134 15 0.0 0.0 0.00 0.00 0.00 44 1010.5
20260502234110 16 0.0 0.0 0.00 0.00 0.00 41 1010.6
20260502233127 16 0.0 0.0 0.00 0.00 0.00 43 1010.7
20260502232121 16 0.0 0.0 0.00 0.00 0.00 43 1010.7
20260502231059 17 0.0 0.0 0.00 0.00 0.00 39 1010.8
20260502230055 17 0.0 0.0 0.00 0.00 0.00 36 1010.8
20260502225130 17 0.0 0.0 0.00 0.00 0.00 37 1010.9
20260502224056 18 0.0 0.0 0.00 0.00 0.00 34 1011.0
20260502223048 18 0.0 0.0 0.00 0.00 0.00 33 1011.1
20260502222040 18 0.0 0.0 0.00 0.00 0.00 34 1011.1
20260502221042 18 0.0 0.0 0.00 0.00 0.00 34 1011.2
20260502220059 18 0.0 0.0 0.00 0.00 0.00 34 1011.2
20260502215032 18 0.0 0.0 0.00 0.00 0.00 34 1011.2
20260502214040 18 0.0 0.0 0.00 0.00 0.00 36 1011.3
20260502213023 16 0.0 0.0 0.00 0.00 0.00 43 1011.4
20260502212044 14 0.0 0.0 0.00 0.00 0.00 49 1011.5
20260502211208 13 0.0 0.0 0.00 0.00 0.00 51 1011.6
20260502210128 13 0.0 0.0 0.00 0.00 0.00 50 1011.6
20260502205116 13 0.0 0.0 0.00 0.00 0.00 50 1011.7
20260502181136 21 0.0 0.0 0.00 0.00 0.00 32 1011.9
20260502180127 21 0.0 0.0 0.00 0.00 0.00 32 1012.0
20260502170118 26 0.0 0.0 0.00 0.00 0.00 24 1012.1
20260502164044 26 0.0 0.0 0.00 0.00 0.00 23 1012.2
20260502163034 26 0.0 0.0 0.00 0.00 0.00 20 1012.3
20260502162112 26 0.0 0.0 0.00 0.00 0.00 21 1012.5
20260502161031 27 0.0 0.0 0.00 0.00 0.00 13 1012.6
20260502152110 27 0.0 0.0 0.00 0.00 0.00 21 1013.1
20260502151113 27 0.0 0.0 0.00 0.00 0.00 13 1013.2
20260502150113 27 0.0 0.0 0.00 0.00 0.00 13 1013.3
20260502123131 27 0.0 0.0 0.00 0.00 0.00 21 1014.6
20260502122104 27 0.0 0.0 0.00 0.00 0.00 20 1014.8
20260502121114 27 0.0 0.0 0.00 0.00 0.00 15 1014.9
20260502115055 27 0.0 0.0 0.00 0.00 0.00 14 1015.2
20260502114050 27 0.0 0.0 0.00 0.00 0.00 13 1015.2
20260502113046 27 0.0 0.0 0.00 0.00 0.00 21 1015.3
20260502112043 27 0.0 0.0 0.00 0.00 0.00 21 1015.3
20260502111039 27 0.0 0.0 0.00 0.00 0.00 21 1015.4
20260502110037 27 0.0 0.0 0.00 0.00 0.00 21 1015.5
20260502105033 26 0.0 0.0 0.00 0.00 0.00 21 1015.6
20260502104051 26 0.0 0.0 0.00 0.00 0.00 23 1015.8
20260502103026 26 0.0 0.0 0.00 0.00 0.00 22 1015.7
20260502102022 26 0.0 1.6 0.00 0.00 0.00 22 1016.0
20260502101021 26 0.0 0.0 0.00 0.00 0.00 23 1016.2
20260502100136 25 0.0 0.0 0.00 0.00 0.00 23 1016.2
20260502091057 25 0.0 0.0 0.00 0.00 0.00 25 1016.6
20260502071135 17 0.0 0.0 0.00 0.00 0.00 45 1017.2
20260502070112 16 0.0 0.0 0.00 0.00 0.00 51 1017.2
20260502065128 16 0.0 0.0 0.00 0.00 0.00 51 1017.2
20260502064107 16 0.0 0.0 0.00 0.00 0.00 52 1017.2
20260502063113 15 0.0 0.0 0.00 0.00 0.00 54 1017.4
20260502062057 15 0.0 0.0 0.00 0.00 0.00 55 1017.4